Hourly Weather Barrancas

Today, 21 April, Wednesday

Time Temperature Precipitation Wind Pressure Humidity
00:00 +29°C° 0 mm 3 mps 756 mmHg 58%
01:00 +28°C° 0 mm 2 mps 756 mmHg 60%
02:00 +28°C° 0 mm 3 mps 756 mmHg 62%
03:00 +28°C° 0 mm 3 mps 756 mmHg 63%
04:00 +27°C° 0 mm 3 mps 756 mmHg 64%
05:00 +28°C° 0.1 mm 3 mps 756 mmHg 62%
06:00 +29°C° 0.1 mm 3 mps 757 mmHg 59%
07:00 +29°C° 0.1 mm 2 mps 757 mmHg 57%
08:00 +31°C° 0 mm 2 mps 758 mmHg 53%
09:00 +32°C° 0 mm 2 mps 758 mmHg 49%
10:00 +35°C° 0 mm 2 mps 758 mmHg 46%
11:00 +36°C° 0 mm 2 mps 757 mmHg 44%
12:00 +36°C° 0 mm 3 mps 756 mmHg 43%
13:00 +37°C° 0 mm 3 mps 756 mmHg 42%
14:00 +36°C° 0 mm 4 mps 755 mmHg 43%
15:00 +36°C° 0 mm 5 mps 755 mmHg 45%
16:00 +35°C° 0 mm 6 mps 755 mmHg 47%
17:00 +34°C° 0 mm 6 mps 755 mmHg 53%
18:00 +32°C° 0 mm 7 mps 755 mmHg 59%
19:00 +30°C° 0 mm 7 mps 756 mmHg 65%
20:00 +29°C° 0 mm 7 mps 756 mmHg 68%
21:00 +29°C° 0 mm 7 mps 756 mmHg 70%
22:00 +29°C° 0 mm 6 mps 756 mmHg 73%
23:00 +28°C° 0 mm 6 mps 756 mmHg 72%

Tomorrow, 22 April, Thursday

Time Temperature Precipitation Wind Pressure Humidity
00:00 +28°C° 0 mm 5 mps 756 mmHg 71%
01:00 +28°C° 0 mm 4 mps 756 mmHg 69%
02:00 +28°C° 0 mm 4 mps 756 mmHg 70%
03:00 +28°C° 0 mm 3 mps 756 mmHg 70%
04:00 +27°C° 0 mm 3 mps 756 mmHg 71%
05:00 +28°C° 0 mm 3 mps 756 mmHg 68%
06:00 +29°C° 0 mm 3 mps 757 mmHg 65%
07:00 +29°C° 0 mm 2 mps 757 mmHg 63%
08:00 +31°C° 0 mm 2 mps 758 mmHg 58%
09:00 +34°C° 0 mm 2 mps 758 mmHg 53%
10:00 +35°C° 0 mm 2 mps 758 mmHg 48%
11:00 +36°C° 0 mm 3 mps 757 mmHg 47%
12:00 +36°C° 0 mm 3 mps 756 mmHg 46%
13:00 +37°C° 0 mm 4 mps 755 mmHg 45%
14:00 +36°C° 0 mm 4 mps 755 mmHg 47%
15:00 +35°C° 0 mm 4 mps 755 mmHg 48%
16:00 +35°C° 0 mm 3 mps 754 mmHg 50%
17:00 +33°C° 0 mm 4 mps 755 mmHg 56%
18:00 +32°C° 0 mm 5 mps 755 mmHg 61%
19:00 +30°C° 0 mm 6 mps 756 mmHg 67%
20:00 +29°C° 0 mm 6 mps 756 mmHg 70%
21:00 +29°C° 0 mm 6 mps 756 mmHg 73%
22:00 +28°C° 0 mm 6 mps 757 mmHg 76%
23:00 +28°C° 0 mm 6 mps 757 mmHg 77%

Day after tomorrow, 23 April, Friday

Time Temperature Precipitation Wind Pressure Humidity
00:00 +28°C° 0 mm 6 mps 756 mmHg 78%
01:00 +28°C° 0 mm 5 mps 756 mmHg 78%
02:00 +28°C° 0 mm 5 mps 756 mmHg 78%
03:00 +28°C° 0 mm 4 mps 756 mmHg 77%
04:00 +27°C° 0 mm 3 mps 756 mmHg 77%
05:00 +28°C° 0 mm 3 mps 756 mmHg 74%
06:00 +29°C° 0 mm 3 mps 757 mmHg 72%
07:00 +29°C° 0 mm 2 mps 757 mmHg 69%
08:00 +31°C° 0.1 mm 2 mps 757 mmHg 62%
09:00 +34°C° 0.1 mm 2 mps 757 mmHg 56%
10:00 +35°C° 0.1 mm 2 mps 757 mmHg 49%
11:00 +35°C° 0.1 mm 2 mps 757 mmHg 50%
12:00 +35°C° 0.1 mm 2 mps 756 mmHg 50%
13:00 +35°C° 0.1 mm 2 mps 755 mmHg 50%
14:00 +35°C° 0 mm 3 mps 755 mmHg 50%
15:00 +35°C° 0 mm 4 mps 754 mmHg 50%
16:00 +35°C° 0 mm 5 mps 754 mmHg 50%
17:00 +33°C° 0 mm 5 mps 754 mmHg 56%
18:00 +32°C° 0 mm 5 mps 755 mmHg 62%
19:00 +30°C° 0 mm 6 mps 755 mmHg 68%
20:00 +29°C° 0 mm 6 mps 756 mmHg 70%
21:00 +29°C° 0 mm 6 mps 756 mmHg 73%
22:00 +29°C° 0 mm 6 mps 756 mmHg 76%
23:00 +29°C° 0 mm 5 mps 756 mmHg 75%

24 April, Saturday

Time Temperature Precipitation Wind Pressure Humidity
00:00 +29°C° 0 mm 5 mps 755 mmHg 74%
01:00 +29°C° 0 mm 4 mps 755 mmHg 73%
02:00 +28°C° 0 mm 4 mps 755 mmHg 73%
03:00 +28°C° 0 mm 3 mps 755 mmHg 73%
04:00 +28°C° 0 mm 3 mps 755 mmHg 74%
05:00 +28°C° 0 mm 3 mps 756 mmHg 71%
06:00 +29°C° 0 mm 2 mps 756 mmHg 68%
07:00 +30°C° 0 mm 2 mps 757 mmHg 66%
08:00 +31°C° 0 mm 2 mps 757 mmHg 59%
09:00 +34°C° 0 mm 2 mps 757 mmHg 53%
10:00 +36°C° 0 mm 2 mps 757 mmHg 47%
11:00 +36°C° 0 mm 2 mps 757 mmHg 48%
12:00 +36°C° 0 mm 3 mps 756 mmHg 48%
13:00 +36°C° 0 mm 3 mps 755 mmHg 49%
14:00 +36°C° 0 mm 4 mps 754 mmHg 49%
15:00 +35°C° 0 mm 4 mps 754 mmHg 50%
16:00 +35°C° 0 mm 5 mps 754 mmHg 51%
17:00 +34°C° 0 mm 6 mps 754 mmHg 57%
18:00 +32°C° 0 mm 6 mps 755 mmHg 63%
19:00 +30°C° 0 mm 7 mps 755 mmHg 69%
20:00 +30°C° 0 mm 6 mps 755 mmHg 69%
21:00 +30°C° 0 mm 5 mps 755 mmHg 70%
22:00 +30°C° 0 mm 5 mps 756 mmHg 71%
23:00 +29°C° 0 mm 5 mps 755 mmHg 71%

25 April, Sunday

Time Temperature Precipitation Wind Pressure Humidity
00:00 +29°C° 0 mm 4 mps 755 mmHg 70%
01:00 +29°C° 0 mm 4 mps 755 mmHg 70%
02:00 +29°C° 0 mm 4 mps 755 mmHg 71%
03:00 +28°C° 0 mm 4 mps 755 mmHg 73%
04:00 +28°C° 0 mm 3 mps 755 mmHg 74%
05:00 +28°C° 0.1 mm 3 mps 756 mmHg 72%
06:00 +29°C° 0.1 mm 3 mps 756 mmHg 69%
07:00 +30°C° 0.1 mm 3 mps 756 mmHg 67%
08:00 +32°C° 0.1 mm 2 mps 756 mmHg 60%
09:00 +34°C° 0.1 mm 2 mps 757 mmHg 54%
10:00 +36°C° 0.1 mm 2 mps 757 mmHg 47%
11:00 +36°C° 0 mm 2 mps 756 mmHg 49%
12:00 +36°C° 0 mm 2 mps 755 mmHg 51%
13:00 +35°C° 0 mm 3 mps 755 mmHg 52%
14:00 +35°C° 0 mm 4 mps 754 mmHg 52%
15:00 +35°C° 0 mm 5 mps 754 mmHg 53%
16:00 +35°C° 0 mm 5 mps 753 mmHg 53%
17:00 +33°C° 0 mm 6 mps 754 mmHg 57%
18:00 +32°C° 0 mm 6 mps 754 mmHg 61%
19:00 +30°C° 0 mm 6 mps 755 mmHg 65%
20:00 +30°C° 0 mm 6 mps 755 mmHg 67%
21:00 +29°C° 0 mm 6 mps 755 mmHg 70%
22:00 +29°C° 0 mm 6 mps 756 mmHg 73%
23:00 +29°C° 0 mm 5 mps 755 mmHg 74%

26 April, Monday

Time Temperature Precipitation Wind Pressure Humidity
00:00 +29°C° 0 mm 5 mps 755 mmHg 74%
01:00 +28°C° 0 mm 5 mps 755 mmHg 74%
02:00 +28°C° 0.1 mm 4 mps 755 mmHg 75%
03:00 +28°C° 0.1 mm 4 mps 755 mmHg 75%
04:00 +28°C° 0.1 mm 3 mps 755 mmHg 75%
05:00 +28°C° 0.1 mm 3 mps 755 mmHg 72%
06:00 +29°C° 0.1 mm 3 mps 756 mmHg 70%
07:00 +29°C° 0.1 mm 3 mps 756 mmHg 67%
08:00 +31°C° 0.1 mm 3 mps 756 mmHg 62%
09:00 +34°C° 0.1 mm 2 mps 756 mmHg 56%
10:00 +36°C° 0.1 mm 2 mps 756 mmHg 50%
11:00 +35°C° 0.1 mm 2 mps 756 mmHg 51%
12:00 +35°C° 0.1 mm 2 mps 755 mmHg 53%
13:00 +35°C° 0.1 mm 3 mps 754 mmHg 54%
14:00 +35°C° 0 mm 3 mps 754 mmHg 54%
15:00 +35°C° 0 mm 4 mps 754 mmHg 54%
16:00 +35°C° 0 mm 4 mps 753 mmHg 54%
17:00 +33°C° 0 mm 5 mps 754 mmHg 60%
18:00 +32°C° 0 mm 6 mps 754 mmHg 67%
19:00 +30°C° 0 mm 7 mps 755 mmHg 73%
20:00 +29°C° 0 mm 6 mps 755 mmHg 75%
21:00 +29°C° 0 mm 6 mps 755 mmHg 76%
22:00 +29°C° 0 mm 6 mps 755 mmHg 78%
23:00 +28°C° 0.4 mm 6 mps 755 mmHg 79%
Show more